User: anonymous   Login
Location: Unspecified
(0.0000°N, 0.0000°E)
Time: 18:28:08
(UTC+02:00)
Language:

ARIANE 5 R/B - Orbit

View from above orbital plane
View from above orbital plane
View from above satellite
View from above satellite

Ground track
Ground track

The orbit data is extracted from the following two-line orbital elements,

1 28379U 04027B   16151.29873598 -.00000109  00000-0 -19890-2 0  9998
2 28379   6.9106  93.2136 7298879 182.8958 349.3287  2.07922120 90176
Epoch (UTC): 30 May 2016 07:10:10
Eccentricity: 0.7298879
inclination: 6.9106°
perigee height: 626 km
apogee height: 38477 km
right ascension of ascending node: 93.2136°
argument of perigee: 182.8958°
revolutions per day: 2.07922120
mean anomaly at epoch: 349.3287°
orbit number at epoch: 9017

The dashed part of the orbit path shows where the satellite is in the earth's shadow,  

DLR